Вернуться в каталог

TIROS 3

АктивенПогодаLEO
NORAD 162·PAYLOAD·🇺🇸 United States

Запущен Jul 12, 1961 с Cape Canaveral Space Force Station

Loading…

Ближайшие Пролёты (ближайшие 24 часа)

TLE

СвежийSource: Space-Track

Эпоха: Sep 14, 2026, 21:41 UTC

1 00162U 61017A   26257.90357267 -.00000031  00000-0  37456-4 0  9999
2 00162  47.9003 320.8606 0043717 352.2864   7.7353 14.45418722404754

Отслеживайте TIROS 3 в реальном времени с AllMySat

Download on the App Store